Vorticity
2 8 9 6 8 11 11 7 7 12 12 12 15 14 9 7 9 13 15 18 19 20 26 29 23 17 16 13 11 15 24 31 32 27 30 28 11 13 24 14 25 37 14 4 2 -0 29 23 -7 28 53 22 11 16 8 6 14 13 4 7 12 7 5 -7 -2 30 28 19 39 23 -13 -0 18 7 4 14 12 9 10 -3 -5 16 17 1 11 29 24
1 7 8 5 10 10 5 1 3 8 12 13 17 19 16 9 5 9 11 13 16 13 13 23 30 27 21 12 7 15 28 28 21 18 20 22 21 24 27 24 28 24 3 4 12 13 29 19 -7 22 55 34 14 15 8 3 10 6 -3 7 14 13 20 11 -1 11 17 18 27 11 -14 -11 9 14 4 7 18 15 10 1 -8 3 11 2 10 33 28
1 5 7 6 11 7 -1 -2 3 9 10 9 15 19 18 11 6 10 8 5 16 21 14 19 27 25 24 19 8 13 27 15 4 12 17 22 27 18 18 29 20 4 5 13 19 23 22 11 1 21 51 47 25 15 3 -0 8 -2 -8 11 9 -0 19 18 -3 -8 -4 3 10 6 7 7 5 15 16 7 12 20 18 9 -1 -2 3 2 4 19 27
2 3 6 6 9 6 -1 -4 3 11 9 6 13 17 15 12 8 11 11 7 21 26 15 23 37 29 21 17 10 15 22 8 2 15 15 17 27 17 19 35 16 -8 5 22 26 20 5 3 9 19 41 46 31 16 -1 1 9 -12 -9 24 10 -6 21 19 3 15 13 11 25 22 9 -1 -6 9 20 7 3 14 16 9 5 2 -2 -0 1 1 8
5 2 5 5 6 5 -0 -3 3 11 9 5 10 11 14 17 12 10 10 13 26 26 10 17 38 38 23 15 17 19 13 5 7 12 10 13 21 20 26 31 3 -18 6 25 11 -10 -7 13 14 11 30 38 31 20 -2 -3 4 -18 -9 26 7 -2 32 20 -1 19 20 12 30 32 13 -3 -7 7 16 4 -0 9 7 -1 3 5 -4 -8 -2 -1 -3
10 2 4 4 4 3 0 -1 4 11 10 6 7 7 8 14 15 12 9 10 14 13 12 14 23 38 37 19 16 19 12 15 23 21 20 21 25 36 40 19 -12 -10 20 19 -9 -10 17 29 15 12 28 36 33 22 -1 -4 -0 -13 -1 18 -5 -5 31 26 8 16 16 16 29 35 33 14 -9 1 17 7 -0 9 9 0 2 10 5 -4 -1 3 -4
15 4 2 4 4 4 2 3 7 10 10 8 6 6 6 8 12 13 8 6 -2 -7 9 21 18 31 38 16 7 15 14 14 18 24 30 27 28 35 25 1 -8 7 23 10 -4 17 31 18 14 20 26 33 31 9 -7 -3 -3 -9 7 16 -5 -7 14 19 15 13 11 20 25 26 38 34 5 -2 13 16 7 7 8 5 6 17 15 0 1 12 9
21 8 0 2 5 6 5 6 7 8 10 10 7 6 7 5 8 13 11 11 6 -6 -2 14 19 25 30 15 -0 1 5 2 3 19 31 24 17 11 -0 2 11 11 9 3 2 14 11 4 16 14 8 28 36 9 -9 -6 -6 -6 6 14 5 0 7 10 8 5 4 12 13 5 14 36 34 11 7 21 18 1 -3 -2 2 20 26 8 -1 7 9
24 15 1 -0 3 7 9 8 4 5 9 11 9 7 8 5 4 12 14 13 18 13 -0 -0 9 18 27 24 6 -7 -6 0 7 22 29 20 11 2 -2 14 21 10 8 6 5 14 14 13 16 7 6 26 27 11 1 -3 2 5 3 7 5 -5 0 10 6 2 3 6 10 1 -7 18 47 31 5 10 15 2 -3 -6 -6 16 30 16 3 2 -1
24 21 5 -1 2 6 10 7 1 3 9 11 11 9 10 8 4 8 13 12 14 16 8 -5 -6 9 27 30 20 5 -5 -4 9 22 22 16 14 8 3 9 9 8 17 13 8 19 23 18 16 12 16 22 12 6 8 6 8 6 0 8 9 -2 5 13 4 0 3 3 8 5 -8 4 35 38 13 4 12 12 4 -9 -13 6 20 8 -1 4 5
19 26 12 -0 1 6 8 6 0 1 7 10 11 10 10 11 7 4 8 13 11 12 16 5 -8 4 22 23 21 21 12 4 14 27 22 7 4 8 9 8 3 2 10 12 11 15 14 13 19 19 16 16 11 3 -1 2 8 4 4 17 15 8 15 11 2 5 5 2 6 8 -0 -4 11 27 18 2 5 14 15 4 -12 -7 8 3 -10 -8 -0
13 25 19 3 0 6 6 3 1 1 4 7 8 8 9 10 10 7 5 10 11 11 17 16 4 5 15 16 16 22 24 18 17 29 33 15 4 7 3 3 10 7 5 10 11 11 14 14 17 24 24 15 14 15 7 3 9 4 2 13 13 8 5 -2 3 13 7 -1 4 7 2 -3 1 16 17 7 2 5 16 20 -1 -15 -5 -1 -7 -8 -6
9 19 23 10 0 4 7 3 1 2 3 4 7 9 9 10 12 11 6 7 10 9 11 17 14 7 6 11 13 10 13 21 20 20 24 19 17 12 -9 -11 13 16 3 2 1 1 13 12 4 19 30 10 -2 13 13 4 9 9 1 7 13 8 -1 -7 1 11 5 1 3 2 1 2 2 6 14 22 20 7 9 22 18 4 -2 -8 -11 -9 -10
10 12 21 20 5 0 6 5 2 4 3 2 6 9 10 12 13 12 8 7 9 7 8 13 17 15 10 11 17 12 8 22 28 13 2 7 14 8 -7 -1 20 19 6 4 2 -2 2 6 10 26 36 16 -2 5 7 1 8 10 3 7 11 4 1 2 5 10 9 4 3 3 4 6 7 10 15 23 24 14 8 15 19 18 14 7 3 3 -0
13 8 15 24 15 1 3 5 4 5 3 1 4 9 11 12 13 12 10 9 9 9 8 10 16 24 19 9 14 21 18 24 29 16 3 8 10 3 6 17 19 14 12 8 3 -1 -3 8 27 30 17 5 2 5 6 8 14 12 5 7 6 1 2 3 4 11 14 7 1 1 7 11 11 12 12 14 19 18 13 10 8 5 8 12 13 13 12
14 10 8 19 22 10 1 3 5 4 2 2 3 7 11 12 10 12 10 8 11 11 8 10 15 19 18 9 6 17 24 23 22 16 11 11 8 6 17 23 16 16 20 10 1 2 5 17 31 25 9 2 -1 -3 -1 6 17 22 17 12 5 3 7 6 6 14 17 13 5 -1 5 14 9 0 0 7 16 19 18 21 17 5 4 11 11 9 9
13 13 7 11 21 19 6 1 4 4 2 3 2 3 9 10 9 12 9 6 13 12 7 11 14 12 19 18 7 12 24 20 16 19 19 14 13 17 21 19 14 18 19 8 2 8 19 28 26 17 17 15 5 3 7 8 12 18 22 21 13 6 7 9 14 18 12 10 14 10 5 7 3 -0 4 10 14 14 14 20 19 10 10 16 16 15 13
12 15 11 6 13 22 16 5 2 4 3 2 1 1 5 8 11 13 7 4 12 13 9 13 11 9 20 20 2 3 15 12 10 15 14 12 17 21 20 16 9 7 7 5 8 15 23 25 16 8 11 14 11 12 13 11 12 13 19 26 20 9 5 4 10 17 10 1 9 14 8 7 7 7 10 14 16 14 11 12 14 10 10 14 16 20 23
11 14 13 8 7 15 22 15 5 2 3 3 2 1 2 7 11 12 7 6 12 14 14 16 9 6 18 22 9 3 7 5 8 15 14 14 16 14 18 20 8 -2 1 6 12 19 19 13 7 4 5 10 14 12 7 10 16 14 18 27 21 8 6 5 3 10 10 3 4 5 2 7 10 5 4 10 12 12 12 12 10 6 4 7 10 13 17
10 13 13 12 7 7 17 22 15 5 2 4 5 1 1 5 7 9 11 10 11 14 14 16 12 6 13 24 19 10 6 4 8 17 21 21 19 13 16 17 5 -1 7 13 10 10 12 10 6 1 3 11 14 7 5 13 19 18 20 25 19 9 9 10 7 6 7 7 9 5 -2 -2 2 1 3 10 11 10 12 14 11 8 7 5 5 7 9
9 12 13 14 10 5 9 18 22 16 5 2 5 2 1 3 3 8 13 8 8 13 13 14 16 10 9 19 21 15 14 11 7 13 21 21 18 17 16 9 1 3 13 14 6 4 8 9 6 3 9 18 16 8 9 14 15 17 18 15 15 14 10 6 4 2 1 4 10 12 6 -3 -4 2 7 10 11 10 11 14 14 13 12 11 9 8 7
8 10 12 14 12 8 6 8 18 24 14 4 4 3 0 1 2 7 11 9 10 15 13 12 18 14 6 11 17 17 16 12 6 8 15 18 18 17 14 10 8 12 17 8 -4 -1 8 8 5 8 13 13 9 8 13 14 11 14 16 12 13 18 15 7 3 -1 -2 1 5 12 14 3 -6 0 9 11 11 11 9 12 15 14 12 14 14 12 10
8 9 11 14 13 11 8 5 10 22 23 12 4 2 2 1 3 6 9 10 11 11 10 12 18 16 8 5 10 15 13 9 7 0 -3 8 19 12 4 9 15 18 20 9 -6 -3 11 13 10 11 9 5 4 6 10 13 13 14 17 13 10 12 14 14 12 7 6 7 5 9 20 18 1 -6 0 6 9 11 8 6 9 12 13 13 14 14 13
10 9 9 12 14 12 10 7 6 14 24 21 9 3 2 0 2 6 8 9 12 11 12 15 17 17 14 8 8 14 13 10 9 -2 -15 -3 16 10 -1 8 18 16 12 7 1 6 19 19 10 9 9 5 2 5 11 14 11 9 13 13 8 9 12 12 13 15 14 13 7 1 13 28 21 3 -4 -1 4 10 11 6 4 8 11 11 12 13 12
11 11 9 10 14 14 11 9 7 9 20 25 16 6 2 -0 1 6 7 8 12 12 10 13 14 17 20 15 9 12 13 8 6 5 -0 2 12 16 11 11 17 16 10 7 8 14 24 18 -0 -1 16 20 9 4 12 17 9 3 10 16 11 8 11 11 11 14 15 15 13 -1 -6 13 29 24 12 3 -0 4 12 13 9 9 11 12 12 11 10
12 12 11 8 12 16 13 9 8 7 14 24 23 10 2 -1 1 5 7 8 12 12 8 8 11 15 20 19 12 9 9 5 2 6 10 8 8 16 16 10 12 16 10 0 -1 10 27 24 2 -4 15 26 17 8 10 14 10 2 5 14 15 11 9 7 8 12 11 13 19 12 -4 -3 14 26 24 15 3 -2 4 12 14 12 12 13 13 12 11
14 13 12 9 9 16 17 10 8 8 10 20 27 17 4 -0 2 4 6 7 11 13 8 4 7 11 14 18 19 14 7 4 3 3 5 6 5 9 12 9 11 16 11 -1 -5 3 15 16 10 12 20 20 18 17 9 4 10 13 11 11 13 11 8 5 8 14 12 8 12 16 8 2 5 13 20 20 13 2 -3 1 6 9 11 12 13 15 16
15 14 13 10 8 14 18 14 9 8 8 15 25 23 9 -0 1 4 6 7 11 13 8 3 5 8 9 12 19 20 13 8 7 5 3 3 3 3 5 6 6 9 10 7 5 8 10 5 4 13 18 10 7 13 9 -2 4 20 23 12 5 7 10 9 10 14 13 11 11 12 11 11 11 10 11 13 15 12 6 1 1 3 6 9 10 11 13
15 15 13 12 8 11 17 16 10 9 8 11 21 26 15 1 -1 5 7 6 11 14 10 5 5 7 8 9 11 15 18 15 10 8 6 5 4 2 3 4 3 3 5 5 4 8 12 9 4 7 14 13 6 6 10 9 7 11 15 11 6 6 8 11 14 13 10 10 12 11 10 12 13 11 11 10 11 13 14 12 8 6 5 5 5 6 8
14 15 14 12 9 10 16 17 12 9 9 10 17 24 20 6 -1 3 6 5 10 15 12 7 6 6 9 12 9 9 17 20 16 12 9 7 6 5 3 4 3 3 5 7 6 6 7 7 6 6 11 17 11 -0 2 15 21 18 15 16 16 11 6 7 12 12 7 7 12 14 13 12 11 11 13 13 11 11 13 13 12 11 10 9 8 7 7
13 14 14 12 10 10 14 16 14 10 8 10 14 20 22 13 3 3 6 4 7 13 13 9 9 8 8 12 12 9 11 15 16 18 17 13 10 8 4 3 4 4 4 5 7 8 6 6 9 8 8 14 17 7 -4 -1 9 14 14 16 20 19 14 11 11 10 8 7 9 11 9 9 12 17 19 20 18 16 16 16 14 11 10 10 10 10 8
13 13 14 13 10 11 13 16 15 11 9 11 14 16 21 18 7 3 7 5 5 11 13 10 10 11 9 10 13 13 11 9 8 12 17 20 20 17 11 6 4 4 4 4 5 8 8 6 6 8 8 10 15 16 7 -4 -6 -1 5 10 15 19 21 18 14 14 16 16 15 14 9 6 9 13 16 17 17 15 14 15 15 14 12 10 10 11 9
13 12 14 13 10 10 13 15 16 12 10 12 13 14 19 21 10 3 7 7 5 8 12 11 12 14 11 10 12 15 16 12 6 4 8 12 15 20 22 17 10 5 4 5 5 8 11 10 8 8 9 9 9 13 16 12 5 0 1 5 8 13 19 19 15 12 15 18 17 15 10 7 8 7 7 8 10 11 11 12 12 13 14 14 16 16 14
14 12 13 14 11 10 12 15 16 13 11 12 13 12 17 22 15 5 5 7 6 8 11 11 10 12 11 9 10 14 17 14 9 6 6 4 6 13 22 25 20 13 8 7 7 8 10 12 11 9 8 9 9 10 14 18 16 9 5 5 6 7 10 12 10 8 7 7 7 7 6 6 6 4 4 7 9 10 12 14 13 12 12 13 16 19 20
14 12 12 13 12 10 10 14 16 13 11 13 14 11 15 23 19 7 4 7 6 7 11 11 10 12 10 7 9 14 15 11 9 9 7 6 6 9 14 22 26 22 13 8 8 9 9 10 11 11 9 7 8 10 12 15 18 18 13 10 8 7 6 4 3 3 3 3 3 2 3 2 1 -0 3 9 9 8 10 13 13 12 13 15 16 17 18
13 11 12 13 13 11 11 14 16 13 11 13 14 11 15 23 19 8 4 7 6 6 10 11 11 12 9 5 10 17 15 10 10 11 8 7 9 8 8 14 22 25 20 13 8 8 9 10 9 9 8 6 6 8 8 8 12 17 17 15 12 12 12 10 6 4 3 4 4 2 1 1 1 2 5 9 9 7 9 11 10 9 10 12 12 13 14
13 11 12 12 12 12 12 14 15 13 12 15 15 12 16 21 17 8 6 8 6 6 9 9 10 12 10 7 10 15 14 11 12 12 10 9 11 10 9 10 14 18 20 16 11 8 8 9 9 8 7 8 8 7 6 6 7 8 10 11 11 10 12 15 15 13 10 9 9 8 7 7 7 7 6 7 8 8 7 5 3 3 5 6 7 10 11
13 11 11 11 13 15 14 13 13 13 14 17 16 14 15 16 12 8 9 9 7 6 8 8 9 9 9 9 10 10 9 10 10 9 11 12 10 9 10 10 11 14 17 16 14 12 8 7 8 7 7 8 8 6 5 6 6 5 6 8 8 8 10 12 14 15 14 13 13 12 12 14 16 15 12 10 9 8 5 2 -1 -1 2 6 9 11 12
13 11 10 12 14 13 10 11 13 13 14 16 17 16 15 11 8 9 12 11 8 7 7 8 9 8 7 10 12 9 7 9 8 7 11 14 12 10 12 12 11 13 14 13 13 14 12 9 8 7 7 8 10 9 8 8 8 9 11 11 11 11 11 12 13 14 14 14 13 12 13 14 15 14 13 12 10 9 7 4 0 -1 3 9 13 14 14
14 10 10 12 11 7 7 14 18 15 12 15 17 16 15 11 6 7 11 12 10 9 8 7 9 9 7 7 10 10 9 8 8 8 10 11 11 12 15 15 14 13 12 10 11 12 13 15 15 13 11 11 12 12 13 12 11 11 11 10 11 11 11 13 17 21 23 21 18 16 15 15 14 15 15 14 13 12 9 6 6 8 12 16 17 17 18
14 10 9 10 9 8 10 16 18 13 11 14 16 15 16 14 7 3 7 10 10 11 11 9 7 7 6 4 7 11 12 9 7 9 9 9 10 13 16 16 16 15 13 13 13 12 13 17 19 18 16 15 15 15 14 15 16 16 14 12 12 12 11 13 17 20 22 22 19 17 17 16 16 16 17 17 17 17 16 16 17 19 19 17 15 17 20
14 10 9 9 10 11 12 14 14 13 12 13 15 16 17 15 8 3 5 9 9 10 13 13 9 6 5 5 6 8 11 10 7 7 9 8 7 11 15 17 17 18 17 15 14 13 13 13 13 11 11 13 13 13 12 14 18 20 19 15 11 8 7 9 11 13 14 14 13 13 14 14 13 12 13 13 15 16 18 20 19 16 12 9 9 11 15
14 9 7 7 9 12 12 12 13 14 12 13 16 19 19 15 9 4 5 8 8 7 11 17 16 8 4 7 9 8 8 10 8 6 8 9 7 7 11 14 14 16 19 18 16 16 17 17 16 15 16 18 18 17 15 14 16 19 19 17 12 9 8 8 8 8 8 7 6 6 6 5 4 4 4 3 4 6 8 10 10 8 7 6 5 5 7
14 10 7 7 9 12 13 12 13 14 14 13 16 19 19 16 12 8 5 7 8 4 3 12 20 13 3 6 13 10 5 8 9 7 7 9 7 6 10 11 10 11 14 16 17 19 20 21 21 20 20 20 21 21 20 18 18 19 21 20 19 18 17 16 15 13 12 11 10 9 9 8 7 7 7 7 7 7 7 7 6 5 5 5 4 3 3
14 9 7 7 9 12 13 14 15 16 15 14 16 18 18 15 12 10 7 7 10 7 1 5 18 19 9 4 10 12 7 6 9 9 8 8 8 7 8 8 8 8 8 10 13 15 16 16 15 13 13 13 13 14 15 15 15 16 16 17 19 19 19 19 20 21 21 21 20 19 20 20 19 18 18 18 18 17 16 15 14 13 12 10 9 7 6
13 10 7 6 8 12 14 15 17 18 15 11 13 17 18 15 12 10 8 7 8 9 4 3 12 21 18 8 6 12 14 10 8 9 8 8 9 9 7 7 8 7 5 7 10 9 7 8 8 6 5 7 8 8 9 11 11 12 12 12 13 14 14 15 16 16 15 16 16 16 16 16 16 17 18 18 19 20 21 21 20 20 20 20 20 18 16
13 11 8 6 10 14 15 14 16 17 14 10 9 12 16 18 15 10 9 10 9 8 6 4 6 15 20 15 7 9 13 12 8 8 8 8 9 11 10 9 10 8 7 10 10 3 -1 5 9 7 4 5 5 5 7 7 8 9 11 11 11 12 13 12 13 13 13 13 13 13 13 13 13 13 14 14 15 16 16 16 17 18 19 19 20 20 21
13 11 9 8 10 14 13 12 13 16 14 10 8 8 11 17 18 12 9 11 12 9 7 6 5 7 14 17 13 9 10 9 8 8 8 7 8 9 9 10 12 11 11 13 11 4 1 6 9 7 5 7 7 6 7 8 6 7 9 9 10 11 11 10 10 11 11 11 11 11 11 11 12 12 12 13 13 12 11 13 15 16 18 20 21 20 18
13 11 9 8 9 11 9 9 13 19 17 12 9 8 7 10 15 15 12 12 14 12 10 10 9 8 11 15 15 12 10 10 9 8 7 6 7 9 9 9 9 10 11 12 12 10 10 11 10 7 8 9 8 8 9 9 8 7 8 8 8 9 9 9 9 9 8 8 8 9 9 11 12 12 12 12 11 10 9 11 13 13 14 18 25 29 29
12 11 9 8 9 11 11 9 12 19 20 14 10 10 9 8 10 12 12 12 13 12 11 11 12 10 9 10 12 12 11 11 12 11 8 7 7 8 9 8 7 7 9 11 10 8 9 10 10 9 10 10 10 10 11 11 10 9 8 7 7 9 9 7 7 7 6 5 5 6 8 10 13 14 15 14 13 11 8 7 7 7 7 10 14 20 25
13 11 9 8 8 9 11 11 10 15 21 20 12 8 10 11 10 8 9 12 13 12 11 10 10 10 8 8 9 9 8 10 12 11 9 9 9 9 9 9 7 6 8 11 8 6 6 8 7 6 8 10 10 10 11 12 13 13 12 9 8 7 7 6 5 4 4 3 4 5 8 12 14 17 19 18 15 12 9 7 5 6 7 7 7 8 10
12 11 10 10 8 7 10 12 9 8 15 23 21 13 10 10 8 4 4 7 11 13 11 9 8 9 8 8 7 6 6 9 11 7 6 9 11 8 6 6 5 5 9 12 10 8 10 12 9 6 7 9 9 10 11 11 11 12 14 14 12 10 7 6 5 4 3 4 5 6 9 13 16 17 18 19 16 11 7 5 4 6 8 9 8 8 8
Height
5606 5604 5602 5599 5596 5594 5592 5589 5586 5583 5579 5575 5571 5567 5564 5561 5557 5553 5550 5546 5543 5540 5537 5535 5533 5532 5531 5529 5527 5525 5524 5523 5523 5524 5525 5526 5527 5529 5530 5532 5534 5537 5540 5543 5546 5549 5554 5560 5565 5570 5575 5580 5589 5598 5605 5611 5617 5624 5629 5632 5637 5642 5645 5648 5654 5659 5664 5669 5674 5678 5680 5683 5687 5691 5693 5697 5701 5705 5708 5714 5718 5719 5722 5724 5725 5728 5732
5607 5604 5602 5599 5597 5595 5592 5590 5587 5583 5580 5577 5573 5570 5566 5563 5560 5556 5553 5549 5545 5542 5539 5536 5534 5533 5532 5531 5529 5527 5527 5526 5526 5527 5528 5529 5530 5531 5533 5535 5537 5541 5544 5546 5549 5552 5556 5563 5568 5572 5577 5583 5591 5600 5607 5612 5617 5623 5628 5631 5635 5639 5643 5647 5651 5654 5659 5664 5669 5673 5675 5678 5682 5687 5690 5694 5699 5703 5708 5713 5716 5718 5721 5723 5724 5727 5730
5607 5605 5602 5600 5598 5596 5593 5591 5588 5585 5581 5578 5574 5571 5568 5566 5562 5559 5555 5552 5548 5545 5542 5539 5536 5534 5533 5532 5531 5530 5530 5530 5530 5530 5531 5532 5533 5534 5536 5538 5541 5546 5548 5550 5553 5555 5558 5565 5570 5575 5580 5586 5593 5601 5607 5612 5617 5623 5628 5632 5635 5638 5641 5645 5648 5650 5654 5657 5661 5665 5669 5673 5678 5683 5688 5693 5696 5701 5707 5710 5713 5716 5718 5721 5723 5726 5729
5607 5605 5603 5601 5598 5597 5594 5592 5589 5586 5583 5580 5576 5573 5570 5567 5564 5561 5558 5554 5551 5548 5545 5542 5538 5537 5536 5535 5534 5533 5533 5534 5534 5534 5534 5535 5536 5538 5539 5541 5545 5549 5552 5554 5558 5561 5563 5566 5571 5576 5582 5589 5595 5602 5609 5613 5618 5623 5628 5631 5634 5637 5640 5644 5649 5652 5655 5659 5662 5666 5670 5673 5677 5681 5687 5691 5694 5699 5705 5708 5710 5713 5717 5720 5721 5724 5727
5607 5605 5603 5601 5599 5597 5595 5593 5591 5588 5585 5582 5579 5575 5572 5569 5566 5563 5560 5557 5554 5551 5548 5545 5542 5540 5539 5538 5537 5537 5537 5538 5537 5537 5538 5539 5540 5541 5543 5546 5550 5552 5555 5558 5562 5565 5566 5568 5572 5577 5584 5591 5597 5604 5611 5616 5619 5623 5627 5630 5634 5637 5640 5644 5649 5653 5657 5661 5666 5669 5672 5674 5677 5681 5686 5689 5692 5697 5702 5705 5708 5711 5715 5718 5719 5721 5723
5607 5605 5604 5602 5600 5598 5596 5594 5592 5589 5587 5584 5581 5578 5574 5572 5568 5566 5563 5560 5557 5555 5552 5549 5546 5544 5543 5542 5541 5541 5541 5541 5541 5541 5541 5542 5544 5545 5546 5550 5553 5554 5557 5560 5563 5565 5567 5571 5575 5579 5586 5594 5599 5606 5613 5617 5619 5622 5626 5629 5633 5637 5640 5645 5649 5653 5657 5662 5666 5669 5671 5674 5676 5680 5684 5688 5692 5696 5699 5703 5707 5710 5713 5717 5717 5719 5722
5607 5605 5604 5602 5600 5598 5596 5594 5592 5590 5588 5586 5583 5581 5578 5575 5572 5569 5566 5563 5561 5558 5556 5553 5550 5548 5548 5546 5546 5546 5545 5545 5544 5544 5545 5546 5547 5548 5550 5554 5556 5557 5559 5562 5564 5566 5568 5573 5578 5582 5587 5595 5600 5605 5611 5614 5617 5621 5625 5629 5632 5636 5640 5645 5649 5653 5656 5661 5664 5666 5670 5673 5675 5679 5683 5687 5692 5696 5698 5701 5705 5708 5711 5714 5715 5716 5719
5607 5605 5604 5602 5601 5599 5597 5595 5593 5591 5588 5586 5585 5583 5581 5578 5575 5571 5569 5566 5564 5562 5560 5557 5555 5553 5552 5551 5550 5549 5549 5549 5549 5548 5549 5549 5551 5552 5553 5556 5558 5561 5563 5566 5568 5569 5572 5575 5579 5582 5588 5596 5602 5606 5609 5613 5616 5620 5624 5627 5631 5636 5641 5645 5649 5653 5656 5659 5662 5665 5668 5671 5674 5678 5682 5686 5691 5694 5696 5699 5701 5705 5709 5712 5712 5713 5714
5607 5605 5604 5602 5601 5600 5598 5596 5594 5592 5590 5587 5585 5584 5581 5579 5576 5574 5572 5570 5567 5565 5563 5561 5558 5557 5556 5556 5555 5554 5553 5553 5553 5553 5553 5553 5554 5556 5557 5558 5561 5564 5566 5568 5571 5573 5575 5578 5581 5584 5589 5597 5604 5607 5610 5613 5617 5620 5623 5627 5631 5637 5641 5645 5649 5651 5654 5657 5660 5662 5665 5669 5672 5677 5681 5683 5687 5691 5694 5696 5698 5702 5706 5709 5710 5710 5711
5606 5605 5604 5602 5601 5600 5598 5597 5595 5593 5591 5588 5587 5585 5583 5581 5578 5576 5574 5572 5570 5568 5566 5564 5562 5561 5559 5558 5558 5557 5557 5557 5557 5556 5557 5557 5558 5559 5561 5562 5565 5568 5570 5571 5573 5576 5578 5581 5585 5587 5590 5597 5604 5608 5611 5615 5618 5620 5624 5628 5633 5638 5641 5644 5647 5649 5652 5655 5658 5660 5663 5667 5670 5674 5678 5681 5684 5689 5692 5694 5696 5699 5703 5707 5708 5708 5709
5606 5604 5603 5602 5601 5600 5599 5597 5596 5594 5592 5590 5588 5587 5585 5583 5581 5579 5576 5574 5572 5571 5569 5567 5566 5564 5562 5562 5561 5560 5560 5560 5560 5559 5560 5561 5561 5562 5564 5566 5569 5572 5573 5574 5576 5578 5581 5585 5589 5592 5594 5597 5603 5608 5612 5616 5619 5621 5625 5629 5633 5637 5641 5643 5645 5648 5650 5653 5656 5659 5663 5666 5668 5671 5674 5677 5681 5685 5689 5692 5695 5696 5700 5704 5706 5705 5706
5605 5604 5603 5602 5601 5600 5599 5598 5596 5595 5593 5591 5589 5587 5586 5584 5583 5581 5579 5576 5575 5573 5571 5570 5569 5567 5565 5564 5564 5563 5562 5562 5562 5562 5562 5563 5564 5566 5568 5569 5571 5574 5577 5579 5579 5580 5583 5587 5591 5595 5597 5600 5605 5609 5613 5617 5619 5622 5626 5630 5633 5636 5639 5642 5645 5647 5650 5652 5655 5658 5661 5664 5667 5669 5672 5675 5679 5682 5687 5691 5693 5694 5697 5701 5704 5704 5704
5605 5604 5602 5601 5601 5600 5599 5598 5597 5596 5594 5592 5590 5588 5587 5585 5584 5582 5580 5578 5576 5575 5573 5572 5571 5569 5568 5567 5566 5565 5564 5564 5564 5565 5565 5566 5567 5570 5571 5572 5574 5576 5579 5581 5582 5583 5586 5589 5593 5596 5599 5602 5606 5610 5613 5616 5619 5623 5626 5630 5634 5637 5639 5643 5646 5649 5650 5652 5655 5657 5659 5662 5665 5668 5671 5675 5678 5681 5684 5688 5691 5692 5695 5698 5701 5702 5702
5605 5603 5602 5601 5600 5599 5599 5598 5597 5596 5595 5593 5592 5590 5588 5586 5585 5583 5581 5579 5578 5576 5575 5574 5573 5571 5571 5570 5568 5567 5567 5566 5567 5568 5569 5569 5571 5572 5573 5574 5576 5578 5580 5582 5584 5585 5588 5591 5593 5596 5600 5603 5606 5609 5613 5616 5619 5623 5627 5630 5634 5637 5639 5643 5647 5649 5651 5652 5654 5657 5659 5662 5665 5668 5670 5674 5677 5678 5681 5685 5688 5689 5691 5695 5698 5699 5699
5604 5603 5601 5600 5600 5599 5598 5597 5597 5596 5595 5594 5593 5591 5589 5587 5586 5584 5583 5581 5579 5578 5577 5576 5574 5573 5573 5572 5570 5569 5569 5568 5569 5570 5571 5572 5573 5574 5575 5576 5577 5578 5581 5583 5585 5587 5589 5591 5594 5596 5599 5603 5606 5609 5612 5615 5618 5622 5627 5630 5633 5637 5639 5642 5646 5649 5651 5653 5655 5657 5660 5662 5665 5667 5670 5672 5675 5676 5678 5682 5685 5686 5688 5691 5694 5696 5697
5603 5602 5601 5600 5599 5598 5597 5597 5596 5596 5595 5594 5593 5592 5590 5588 5586 5585 5584 5582 5581 5580 5579 5578 5577 5576 5575 5574 5572 5571 5571 5570 5570 5571 5573 5574 5575 5576 5577 5578 5578 5580 5583 5585 5586 5588 5590 5592 5594 5596 5599 5602 5606 5608 5610 5613 5617 5621 5625 5629 5633 5636 5639 5642 5644 5647 5650 5652 5654 5656 5658 5661 5664 5666 5669 5671 5673 5674 5676 5680 5682 5682 5683 5686 5690 5693 5694
5602 5601 5600 5599 5598 5597 5597 5596 5596 5595 5595 5594 5593 5592 5591 5589 5587 5586 5585 5584 5582 5581 5580 5579 5579 5578 5577 5576 5575 5574 5573 5573 5573 5573 5574 5575 5576 5576 5578 5579 5581 5583 5585 5586 5588 5590 5592 5593 5595 5598 5601 5603 5606 5609 5611 5614 5617 5619 5622 5627 5630 5634 5637 5639 5642 5645 5648 5650 5652 5654 5657 5660 5663 5664 5667 5669 5671 5672 5674 5677 5678 5678 5680 5683 5686 5689 5691
5601 5600 5599 5598 5597 5597 5596 5595 5595 5595 5594 5594 5593 5592 5591 5590 5589 5587 5586 5584 5583 5582 5581 5581 5581 5579 5578 5578 5577 5576 5576 5576 5576 5576 5576 5576 5577 5579 5580 5582 5583 5585 5587 5588 5589 5590 5591 5594 5596 5599 5602 5605 5608 5610 5612 5614 5616 5619 5622 5625 5628 5631 5634 5637 5640 5643 5645 5647 5649 5651 5655 5658 5660 5662 5665 5666 5668 5669 5670 5673 5674 5675 5678 5681 5684 5686 5688
5600 5599 5598 5597 5596 5596 5595 5595 5594 5594 5594 5593 5593 5592 5592 5591 5589 5588 5586 5585 5585 5583 5583 5582 5581 5581 5580 5580 5578 5578 5578 5578 5579 5579 5578 5578 5579 5581 5582 5583 5585 5587 5588 5590 5591 5592 5592 5594 5597 5599 5602 5605 5608 5610 5612 5614 5617 5620 5623 5625 5627 5629 5632 5635 5638 5641 5643 5645 5647 5650 5653 5656 5658 5660 5662 5663 5665 5666 5667 5670 5672 5674 5677 5680 5681 5684 5686
5599 5598 5597 5596 5595 5595 5594 5593 5593 5593 5593 5592 5592 5592 5592 5591 5590 5588 5587 5586 5585 5584 5583 5583 5582 5582 5581 5581 5580 5580 5580 5580 5580 5581 5580 5581 5581 5582 5584 5585 5586 5588 5590 5591 5593 5594 5595 5596 5598 5599 5601 5604 5606 5609 5612 5614 5617 5620 5623 5625 5627 5629 5632 5635 5638 5640 5642 5643 5645 5648 5651 5654 5656 5658 5660 5661 5662 5664 5666 5669 5671 5674 5676 5678 5680 5681 5683
5597 5596 5595 5595 5594 5593 5593 5592 5592 5592 5592 5592 5592 5591 5591 5591 5590 5589 5588 5587 5586 5585 5584 5583 5583 5583 5583 5582 5581 5581 5581 5581 5582 5583 5583 5584 5584 5585 5586 5588 5588 5589 5591 5593 5594 5596 5597 5598 5599 5601 5602 5604 5607 5609 5612 5615 5617 5620 5623 5626 5628 5630 5632 5635 5637 5639 5641 5643 5644 5646 5650 5653 5655 5656 5658 5660 5661 5663 5666 5668 5670 5672 5675 5677 5678 5678 5679
5596 5595 5594 5593 5593 5592 5592 5591 5590 5590 5590 5590 5591 5591 5591 5591 5590 5589 5589 5587 5587 5586 5585 5584 5584 5584 5584 5584 5583 5583 5583 5583 5584 5585 5585 5586 5587 5588 5589 5590 5591 5591 5593 5594 5595 5597 5598 5600 5601 5602 5604 5605 5607 5609 5612 5614 5617 5619 5622 5625 5627 5629 5631 5634 5636 5638 5639 5641 5643 5646 5649 5652 5654 5655 5656 5658 5660 5661 5663 5665 5667 5669 5672 5674 5675 5676 5676
5594 5593 5592 5592 5591 5591 5590 5590 5589 5589 5589 5589 5590 5590 5590 5590 5590 5589 5589 5588 5587 5586 5586 5585 5585 5584 5585 5585 5585 5584 5584 5585 5586 5586 5587 5588 5589 5590 5591 5592 5592 5593 5594 5596 5596 5598 5599 5601 5602 5603 5605 5606 5608 5610 5612 5613 5616 5618 5620 5622 5625 5628 5630 5632 5635 5636 5638 5640 5642 5645 5648 5650 5651 5653 5654 5655 5657 5659 5661 5663 5664 5666 5668 5670 5672 5673 5674
5592 5591 5590 5590 5589 5589 5589 5588 5588 5588 5587 5588 5588 5589 5589 5589 5589 5589 5589 5588 5587 5587 5586 5586 5586 5585 5585 5586 5586 5586 5585 5586 5587 5588 5588 5589 5591 5592 5592 5593 5594 5595 5596 5597 5598 5599 5600 5602 5603 5604 5606 5607 5609 5611 5612 5614 5615 5617 5619 5621 5624 5627 5628 5630 5632 5634 5636 5639 5641 5644 5646 5647 5648 5650 5652 5654 5656 5658 5659 5661 5662 5663 5666 5668 5669 5671 5672
5590 5589 5588 5588 5588 5587 5587 5587 5587 5586 5586 5586 5587 5587 5588 5588 5588 5588 5588 5588 5588 5587 5587 5586 5586 5585 5585 5586 5587 5587 5586 5587 5588 5589 5589 5590 5591 5592 5593 5594 5595 5596 5597 5598 5599 5600 5601 5603 5604 5605 5606 5607 5609 5611 5612 5614 5615 5617 5619 5621 5623 5625 5627 5629 5631 5632 5634 5636 5638 5641 5644 5644 5645 5647 5649 5652 5654 5656 5658 5660 5661 5662 5663 5665 5667 5669 5671
5587 5587 5586 5586 5586 5585 5585 5585 5585 5585 5585 5585 5585 5586 5587 5587 5587 5588 5588 5588 5587 5587 5587 5587 5586 5586 5586 5586 5587 5587 5587 5588 5588 5589 5590 5591 5592 5592 5593 5594 5595 5596 5597 5598 5599 5600 5602 5603 5604 5605 5606 5607 5609 5611 5612 5614 5616 5617 5619 5621 5623 5624 5626 5628 5629 5630 5632 5634 5636 5639 5641 5642 5643 5645 5647 5650 5652 5655 5656 5658 5659 5660 5662 5663 5665 5666 5668
5585 5585 5584 5584 5584 5584 5584 5583 5583 5583 5583 5583 5584 5584 5585 5586 5586 5587 5587 5587 5587 5587 5587 5587 5587 5586 5586 5587 5587 5587 5587 5588 5589 5590 5591 5591 5592 5593 5594 5595 5596 5597 5598 5599 5600 5601 5602 5603 5605 5605 5607 5608 5609 5611 5612 5614 5616 5617 5619 5621 5623 5624 5624 5626 5628 5629 5631 5633 5635 5637 5639 5640 5642 5644 5646 5648 5650 5652 5654 5656 5657 5658 5659 5661 5662 5664 5665
5583 5582 5582 5582 5582 5581 5582 5582 5582 5581 5582 5582 5582 5583 5584 5585 5585 5586 5586 5586 5586 5586 5587 5587 5587 5587 5587 5587 5587 5587 5587 5588 5589 5590 5591 5591 5592 5593 5594 5595 5596 5597 5598 5599 5600 5601 5602 5603 5604 5605 5607 5608 5610 5611 5613 5614 5615 5617 5618 5620 5622 5623 5624 5625 5627 5629 5631 5632 5634 5636 5638 5639 5641 5642 5644 5645 5647 5649 5651 5653 5655 5657 5658 5659 5660 5661 5662
5580 5580 5580 5580 5579 5579 5579 5580 5580 5580 5580 5580 5580 5581 5582 5583 5584 5585 5585 5586 5586 5586 5586 5586 5587 5587 5587 5587 5587 5587 5587 5588 5588 5589 5590 5591 5592 5593 5594 5595 5596 5597 5599 5600 5601 5602 5602 5603 5604 5606 5607 5608 5610 5611 5613 5614 5615 5616 5618 5619 5621 5622 5623 5625 5627 5629 5630 5631 5632 5634 5635 5637 5639 5641 5642 5643 5645 5647 5649 5651 5653 5654 5655 5656 5657 5658 5659
5577 5577 5578 5577 5577 5577 5577 5577 5578 5578 5578 5578 5579 5580 5581 5582 5583 5584 5584 5585 5585 5585 5585 5586 5586 5586 5587 5587 5587 5587 5588 5588 5588 5589 5590 5591 5592 5593 5594 5595 5596 5597 5598 5600 5601 5601 5602 5603 5604 5606 5607 5608 5609 5611 5612 5613 5614 5615 5617 5618 5619 5621 5622 5624 5626 5628 5629 5630 5631 5632 5634 5636 5637 5639 5640 5641 5643 5646 5647 5648 5649 5650 5651 5653 5654 5655 5657
5574 5575 5575 5575 5575 5575 5575 5575 5576 5576 5576 5577 5577 5578 5579 5580 5581 5583 5583 5584 5584 5585 5585 5585 5585 5586 5586 5586 5586 5587 5587 5587 5588 5588 5589 5590 5591 5592 5593 5594 5595 5596 5598 5599 5600 5601 5602 5603 5604 5605 5607 5608 5609 5610 5612 5613 5614 5615 5616 5617 5618 5619 5621 5622 5624 5626 5627 5628 5630 5632 5634 5635 5636 5637 5638 5639 5641 5643 5644 5645 5646 5647 5647 5649 5650 5652 5654
5572 5572 5572 5572 5573 5573 5573 5573 5573 5574 5574 5575 5575 5576 5577 5578 5580 5581 5582 5583 5583 5584 5584 5584 5584 5585 5585 5585 5586 5586 5587 5587 5588 5588 5589 5589 5591 5592 5593 5594 5595 5596 5597 5598 5599 5600 5601 5602 5603 5604 5606 5607 5608 5609 5611 5612 5613 5614 5616 5617 5618 5619 5620 5621 5623 5624 5625 5627 5629 5630 5632 5634 5635 5636 5636 5637 5638 5639 5640 5641 5642 5643 5644 5646 5648 5649 5650
5569 5569 5570 5570 5570 5570 5570 5571 5571 5572 5572 5573 5574 5574 5575 5576 5578 5580 5581 5581 5582 5582 5583 5583 5583 5584 5584 5584 5585 5586 5586 5586 5587 5588 5589 5589 5590 5591 5592 5592 5594 5595 5596 5597 5598 5599 5600 5601 5602 5603 5604 5606 5607 5608 5610 5611 5612 5613 5615 5616 5617 5618 5619 5621 5622 5623 5625 5626 5628 5629 5631 5632 5633 5633 5634 5635 5636 5637 5637 5638 5640 5641 5642 5643 5645 5646 5646
5566 5567 5567 5567 5568 5568 5568 5568 5569 5569 5570 5571 5571 5572 5573 5575 5576 5578 5579 5580 5581 5581 5582 5582 5582 5583 5583 5584 5584 5584 5585 5585 5586 5587 5588 5589 5589 5590 5590 5591 5592 5594 5595 5596 5597 5598 5599 5600 5601 5602 5603 5605 5606 5607 5608 5609 5610 5612 5614 5615 5616 5618 5619 5620 5621 5622 5624 5625 5626 5627 5628 5629 5630 5632 5633 5634 5634 5634 5635 5636 5637 5638 5639 5640 5641 5643 5644
5563 5564 5564 5565 5565 5565 5565 5566 5567 5567 5568 5568 5569 5571 5572 5573 5575 5576 5578 5579 5579 5580 5581 5581 5581 5582 5583 5583 5584 5584 5584 5584 5585 5586 5587 5587 5588 5589 5589 5590 5591 5592 5593 5594 5596 5597 5598 5599 5600 5601 5602 5604 5605 5606 5607 5608 5609 5610 5612 5613 5615 5616 5618 5619 5620 5621 5622 5623 5624 5626 5627 5628 5629 5630 5632 5632 5632 5632 5633 5634 5634 5635 5636 5637 5638 5639 5640
5560 5561 5562 5562 5563 5563 5563 5564 5564 5565 5565 5566 5567 5569 5570 5571 5573 5575 5576 5577 5578 5579 5580 5580 5581 5581 5582 5582 5583 5584 5584 5583 5584 5585 5585 5586 5587 5588 5589 5589 5590 5591 5592 5593 5595 5596 5597 5598 5598 5600 5602 5603 5604 5604 5606 5607 5608 5609 5610 5611 5613 5614 5616 5617 5618 5619 5620 5621 5622 5623 5624 5626 5627 5629 5630 5630 5629 5630 5631 5631 5632 5632 5633 5634 5635 5636 5636
5558 5559 5559 5560 5560 5561 5561 5562 5562 5563 5563 5564 5566 5567 5569 5570 5571 5573 5574 5576 5577 5578 5578 5579 5580 5581 5581 5582 5582 5583 5583 5583 5583 5584 5585 5585 5586 5587 5588 5588 5589 5590 5591 5592 5593 5594 5595 5596 5598 5599 5600 5601 5602 5603 5604 5606 5607 5607 5608 5609 5611 5612 5613 5614 5615 5616 5617 5618 5619 5620 5622 5623 5624 5625 5626 5627 5627 5628 5628 5629 5629 5630 5631 5631 5632 5633 5633
5555 5556 5557 5557 5558 5559 5559 5559 5560 5560 5561 5563 5564 5565 5567 5568 5570 5571 5573 5574 5575 5576 5577 5578 5579 5580 5581 5581 5581 5582 5582 5582 5583 5584 5584 5585 5586 5586 5587 5587 5588 5589 5590 5591 5592 5593 5594 5595 5596 5597 5598 5599 5601 5602 5603 5604 5605 5606 5606 5607 5608 5610 5611 5611 5612 5613 5614 5615 5616 5617 5618 5620 5621 5622 5623 5624 5624 5625 5626 5626 5627 5628 5628 5629 5629 5630 5630
5552 5553 5554 5555 5556 5556 5556 5556 5557 5558 5560 5561 5562 5564 5565 5567 5568 5570 5571 5572 5574 5575 5576 5577 5578 5579 5580 5580 5580 5581 5581 5582 5583 5583 5584 5585 5585 5586 5586 5586 5587 5588 5588 5589 5590 5591 5592 5593 5594 5596 5597 5598 5599 5600 5601 5602 5603 5604 5604 5605 5606 5607 5608 5609 5609 5610 5611 5612 5613 5614 5615 5617 5618 5619 5619 5620 5622 5623 5623 5623 5624 5625 5625 5626 5626 5626 5627
5549 5550 5552 5553 5553 5553 5553 5554 5555 5556 5557 5559 5560 5562 5564 5565 5567 5568 5570 5571 5572 5574 5575 5576 5577 5578 5579 5579 5580 5580 5581 5581 5582 5583 5583 5584 5584 5585 5585 5585 5586 5587 5588 5588 5589 5590 5590 5591 5593 5594 5595 5596 5597 5598 5599 5600 5601 5602 5602 5603 5604 5605 5606 5606 5606 5607 5608 5609 5610 5611 5612 5614 5615 5616 5617 5618 5619 5620 5620 5620 5621 5622 5622 5622 5622 5622 5623
5546 5548 5549 5550 5550 5551 5552 5553 5553 5554 5555 5557 5558 5560 5562 5563 5565 5567 5569 5570 5571 5572 5573 5574 5575 5576 5577 5578 5579 5579 5580 5581 5581 5582 5582 5583 5584 5584 5584 5585 5585 5586 5587 5587 5588 5588 5589 5590 5592 5593 5594 5595 5596 5597 5598 5598 5599 5600 5600 5601 5602 5603 5604 5604 5604 5605 5606 5607 5608 5609 5610 5611 5612 5613 5614 5615 5616 5616 5617 5617 5618 5618 5618 5619 5619 5619 5619
5543 5545 5546 5547 5548 5549 5550 5550 5551 5552 5553 5555 5556 5558 5560 5562 5564 5566 5567 5568 5569 5570 5572 5573 5574 5575 5576 5577 5578 5578 5579 5579 5580 5581 5581 5582 5583 5583 5584 5584 5585 5585 5585 5586 5587 5587 5588 5589 5591 5592 5593 5594 5595 5596 5596 5597 5597 5598 5598 5599 5601 5601 5602 5602 5603 5604 5604 5605 5606 5607 5608 5609 5610 5611 5612 5612 5613 5613 5614 5614 5614 5615 5615 5616 5616 5616 5616
5540 5542 5544 5545 5546 5546 5547 5548 5549 5550 5551 5553 5555 5556 5558 5560 5562 5563 5564 5566 5567 5569 5570 5571 5572 5573 5574 5575 5576 5577 5578 5578 5579 5580 5580 5581 5582 5582 5583 5583 5584 5584 5585 5585 5586 5586 5587 5588 5590 5591 5592 5592 5593 5594 5594 5595 5596 5596 5597 5598 5599 5600 5600 5601 5601 5602 5603 5604 5604 5605 5606 5607 5607 5608 5609 5610 5610 5611 5611 5612 5612 5612 5612 5613 5613 5613 5614
5538 5539 5541 5542 5543 5544 5545 5546 5547 5548 5550 5551 5553 5554 5556 5557 5559 5561 5562 5564 5565 5566 5568 5569 5570 5571 5573 5574 5575 5576 5576 5577 5578 5579 5579 5580 5581 5582 5583 5583 5583 5584 5584 5585 5585 5586 5587 5588 5589 5590 5590 5591 5592 5593 5594 5594 5595 5595 5596 5597 5597 5598 5599 5599 5600 5601 5601 5602 5603 5603 5604 5604 5605 5606 5606 5607 5607 5608 5608 5609 5609 5609 5610 5610 5610 5611 5611
5535 5537 5538 5540 5541 5542 5543 5544 5545 5547 5548 5550 5551 5552 5553 5555 5556 5558 5559 5561 5562 5564 5566 5568 5569 5570 5571 5572 5573 5574 5575 5576 5577 5578 5578 5579 5580 5581 5582 5583 5583 5583 5584 5585 5585 5586 5587 5588 5588 5589 5590 5591 5592 5592 5593 5594 5594 5595 5595 5596 5596 5597 5597 5598 5598 5599 5600 5600 5601 5602 5602 5602 5603 5603 5604 5604 5604 5604 5605 5605 5606 5606 5606 5607 5607 5607 5607
5532 5534 5536 5537 5538 5539 5540 5542 5543 5545 5546 5547 5549 5550 5551 5552 5553 5555 5557 5559 5560 5562 5565 5567 5568 5569 5570 5571 5572 5574 5574 5575 5576 5576 5577 5578 5579 5580 5581 5582 5582 5583 5584 5584 5584 5586 5588 5588 5588 5589 5590 5590 5591 5592 5593 5593 5594 5594 5594 5595 5595 5596 5596 5597 5597 5598 5598 5599 5599 5599 5600 5600 5601 5601 5601 5601 5602 5602 5602 5602 5602 5603 5603 5603 5603 5603 5604
5530 5532 5533 5535 5536 5537 5538 5540 5541 5542 5543 5545 5546 5547 5548 5549 5551 5554 5555 5557 5558 5561 5563 5565 5566 5567 5568 5569 5571 5572 5573 5573 5574 5575 5576 5578 5579 5579 5580 5581 5582 5582 5582 5582 5583 5586 5587 5587 5587 5588 5589 5590 5591 5591 5592 5592 5593 5593 5594 5594 5595 5595 5595 5596 5596 5596 5597 5597 5597 5598 5598 5598 5599 5599 5599 5599 5599 5599 5600 5600 5600 5600 5600 5600 5600 5600 5600
5527 5529 5531 5533 5534 5535 5536 5537 5538 5539 5540 5542 5544 5545 5546 5548 5550 5552 5553 5554 5556 5558 5561 5562 5564 5565 5567 5568 5569 5570 5571 5572 5573 5574 5576 5577 5578 5578 5579 5580 5581 5581 5581 5581 5582 5584 5586 5586 5587 5588 5589 5589 5590 5591 5591 5592 5592 5593 5593 5593 5594 5594 5595 5595 5595 5595 5596 5596 5596 5596 5597 5597 5597 5597 5597 5597 5597 5598 5598 5598 5597 5597 5597 5597 5596 5596 5596
5525 5527 5528 5530 5531 5532 5533 5534 5536 5537 5538 5539 5541 5543 5545 5546 5548 5550 5551 5553 5554 5556 5558 5560 5562 5564 5565 5566 5568 5568 5569 5570 5571 5573 5574 5575 5576 5577 5578 5579 5580 5580 5579 5579 5580 5583 5585 5586 5586 5587 5588 5588 5589 5590 5590 5591 5592 5592 5592 5593 5593 5594 5594 5594 5594 5595 5595 5595 5595 5595 5595 5595 5595 5595 5595 5595 5595 5596 5596 5596 5596 5595 5595 5595 5594 5593 5593
5523 5525 5526 5527 5528 5529 5530 5532 5533 5534 5536 5537 5539 5540 5542 5544 5545 5547 5549 5551 5553 5555 5557 5559 5560 5562 5563 5565 5566 5566 5567 5569 5571 5572 5573 5574 5575 5576 5577 5578 5578 5578 5577 5577 5579 5583 5585 5585 5585 5586 5587 5588 5588 5589 5589 5590 5591 5591 5591 5592 5592 5593 5593 5593 5593 5594 5594 5594 5594 5594 5594 5593 5593 5593 5593 5593 5593 5593 5594 5594 5594 5594 5593 5593 5592 5591 5591
5521 5522 5523 5525 5526 5527 5528 5530 5531 5532 5534 5535 5536 5538 5540 5542 5544 5546 5548 5549 5551 5553 5555 5556 5558 5559 5561 5563 5564 5564 5565 5567 5569 5570 5571 5573 5574 5575 5576 5576 5576 5575 5575 5576 5579 5582 5583 5583 5584 5585 5585 5586 5587 5588 5588 5589 5589 5590 5590 5591 5591 5592 5592 5592 5592 5592 5592 5592 5592 5592 5592 5591 5591 5591 5591 5591 5591 5591 5592 5592 5592 5592 5592 5591 5591 5590 5590
5518 5519 5521 5522 5523 5525 5526 5527 5528 5530 5531 5532 5534 5536 5538 5540 5542 5544 5546 5547 5548 5550 5551 5553 5554 5556 5558 5560 5561 5562 5564 5565 5567 5568 5569 5571 5572 5573 5573 5573 5573 5573 5574 5576 5579 5581 5581 5581 5582 5583 5584 5585 5585 5586 5587 5587 5588 5588 5589 5589 5589 5590 5590 5590 5590 5590 5590 5590 5590 5590 5590 5590 5589 5589 5589 5589 5589 5590 5590 5590 5590 5590 5590 5590 5589 5589 5588